Myrtle Beach, SC

2:55 PM EDT on September 25, 2016 (GMT -0400)
Myrtle Beach International

Weather History for KMYR - March, 2013

Change the Weather History Date:

Friday, March 15, 2013

  Actual Average Record
Temperature  
Mean Temperature 45 °F -  
Max Temperature 57 °F 62 °F 82 °F (2016)
Min Temperature 33 °F 43 °F 21 °F (1993)
Degree Days  
Heating Degree Days 20    
Moisture  
Dew Point 31 °F    
Average Humidity 63    
Maximum Humidity 87    
Minimum Humidity 30    
Precipitation  
Precipitation 0.00 in - - ()
Sea Level Pressure  
Sea Level Pressure 30.15 in    
Wind  
Wind Speed 5 mph (SW)    
Max Wind Speed 17 mph    
Max Gust Speed 17 mph    
Visibility 10 miles    
Events      
Averages and records for this station are not official NWS values.
T = Trace of Precipitation, MM = Missing Value Source: NWS Daily Summary

Daily Weather History Graph

Daily Weather History Graph

Search for Another Location

Airport or City:

Trip Planner

Search our weather history database for the weather conditions in past years. The results will help you decide how hot, cold, wet, or windy it might be!

Date:

Astronomy

Mar. 15, 2013 Rise Set
Actual Time 7:25 AM EDT 7:23 PM EDT
Civil Twilight 7:00 AM EDT 7:48 PM EDT
Nautical Twilight 6:32 AM EDT 8:17 PM EDT
Astronomical Twilight 6:03 AM EDT 8:46 PM EDT
Moon 9:27 AM EDT (3/15) 11:22 PM EDT (3/15)
Length of Visible Light 12h 47m
Length of Day
11h 57m
Waxing Crescent, 15% of the Moon is Illuminated
Mar 15
Waxing Crescent
Mar 19
First Quarter
Mar 27
Full
Apr 3
Last Quarter
Apr 10
New

Hourly Weather History & Observations

Time (EDT) Temp. Windchill Dew Point Humidity Pressure Visibility Wind Dir Wind Speed Gust Speed Precip Events Conditions
12:15 AM 41.0 °F 38.0 °F 26.6 °F 57% 30.20 in 10.0 mi WSW 4.6 mph - N/A   Clear
12:35 AM 39.2 °F - 26.6 °F 61% 30.20 in 10.0 mi Calm Calm - N/A   Clear
12:55 AM 35.6 °F 31.7 °F 28.4 °F 75% 30.20 in 10.0 mi WSW 4.6 mph - N/A   Clear
1:15 AM 35.6 °F 30.7 °F 26.6 °F 70% 30.19 in 10.0 mi West 5.8 mph - N/A   Clear
1:35 AM 35.6 °F 31.7 °F 30.2 °F 81% 30.19 in 10.0 mi WSW 4.6 mph - N/A   Clear
1:55 AM 37.4 °F 33.8 °F 28.4 °F 70% 30.19 in 10.0 mi West 4.6 mph - N/A   Clear
2:15 AM 35.6 °F 30.7 °F 28.4 °F 75% 30.19 in 10.0 mi WSW 5.8 mph - N/A   Scattered Clouds
2:35 AM 37.4 °F - 28.4 °F 70% 30.19 in 10.0 mi Calm Calm - N/A   Overcast
2:55 AM 37.4 °F - 26.6 °F 65% 30.19 in 10.0 mi Calm Calm - N/A   Scattered Clouds
3:15 AM 37.4 °F - 28.4 °F 70% 30.18 in 10.0 mi Calm Calm - N/A   Clear
3:35 AM 35.6 °F - 28.4 °F 75% 30.18 in 10.0 mi Calm Calm - N/A   Clear
3:55 AM 35.6 °F 32.8 °F 28.4 °F 75% 30.18 in 10.0 mi West 3.5 mph - N/A   Clear
4:15 AM 35.6 °F 32.8 °F 30.2 °F 81% 30.18 in 10.0 mi North 3.5 mph - N/A   Clear
4:35 AM 33.8 °F 30.8 °F 26.6 °F 75% 30.18 in 10.0 mi WNW 3.5 mph - N/A   Clear
4:55 AM 33.8 °F - 28.4 °F 81% 30.18 in 10.0 mi Calm Calm - N/A   Clear
5:15 AM 33.8 °F - 26.6 °F 75% 30.18 in 10.0 mi Calm Calm - N/A   Clear
5:35 AM 33.8 °F - 28.4 °F 81% 30.18 in 10.0 mi Calm Calm - N/A   Clear
5:50 AM 33.8 °F - 30.2 °F 87% 30.19 in 10.0 mi Calm Calm - N/A   Clear
6:45 AM 33.8 °F - 30.2 °F 87% 30.21 in 10.0 mi Calm Calm - N/A   Clear
8:48 AM 39.2 °F - 33.8 °F 81% 30.22 in 10.0 mi Calm Calm - N/A   Clear
9:50 AM 48.2 °F - 26.6 °F 43% 30.23 in 10.0 mi NNE 6.9 mph - N/A   Clear
11:45 AM 53.6 °F - 23.0 °F 30% 30.21 in 10.0 mi SE 9.2 mph - N/A   Clear
12:45 PM 53.6 °F - 24.8 °F 33% 30.19 in 10.0 mi South 13.8 mph - N/A   Clear
1:50 PM 55.4 °F - 30.2 °F 38% 30.14 in 10.0 mi SSE 15.0 mph - N/A   Clear
2:50 PM 55.4 °F - 33.8 °F 44% 30.11 in 10.0 mi South 16.1 mph - N/A   Clear
3:45 PM 55.4 °F - 35.6 °F 47% 30.09 in 10.0 mi South 15.0 mph - N/A   Clear
4:50 PM 57.2 °F - 37.4 °F 48% 30.06 in 10.0 mi South 16.1 mph - N/A   Clear
5:45 PM 57.2 °F - 35.6 °F 44% 30.04 in 10.0 mi SSW 16.1 mph - N/A   Clear
6:45 PM 55.4 °F - 39.2 °F 54% 30.03 in 10.0 mi SSW 17.3 mph - N/A   Clear
7:45 PM 53.6 °F - 44.6 °F 72% 30.04 in 10.0 mi SSW 13.8 mph - N/A   Clear
9:50 PM 53.6 °F - 39.2 °F 58% 30.03 in 10.0 mi SW 15.0 mph - N/A   Clear
11:15 PM 55.4 °F - 37.4 °F 51% 30.03 in 10.0 mi SSW 8.1 mph - N/A   Clear
11:35 PM 55.4 °F - 37.4 °F 51% 30.03 in 10.0 mi SSW 10.4 mph 17.3 mph N/A   Clear
11:55 PM 55.4 °F - 39.2 °F 54% 30.02 in 10.0 mi SSW 11.5 mph 17.3 mph N/A   Clear